Flag for United Kingdom Weather past 2 weeks in Bournemouth, England, United Kingdom

Now
45 °F

Passing clouds.


Feels Like: 38 °F
Forecast: 46 / 51 °F
Wind: 14 mph from West

Location: Bournemouth Airport

Current Time: Dec 20, 2014 at 3:51:40 AM

Latest Report: Dec 20, 2014 at 2:50 AM


Visibility: N/A

Pressure: 30.27 "Hg

Humidity: 81%

Dew point: 39 °F

Location of BournemouthLocation

Historic Weather in Bournemouth — Graph

°F

Bournemouth temperature yesterday

Maximum temperature yesterday: 54 °F (at 1:20 AM)
Minimum temperature yesterday: 41 °F (at 5:50 PM)
Average temperature yesterday: 47 °F

Past Weeks' High & Low Weather Summary

 TemperatureHumidityPressure
High55 °F (Dec 17, 12:50 PM)100% (Dec 5, 7:50 AM)30.42 "Hg (Dec 5, 7:50 AM)
Low25 °F (Dec 6, 7:20 AM)62% (Dec 10, 2:20 PM)29.33 "Hg (Dec 12, 4:50 AM)
Average43 °F88%29.99 "Hg
* Reported Dec 5 4:50 AM — Dec 20 2:20 AM, Bournemouth, Weather by CustomWeather, © 2014

Note: Actual official high and low records may vary slightly from our data, if they occured in-between our weather recording intervals... More about our weather records

Advertising

Bournemouth weather history for previous 24 hours

 ConditionsComfort  
Time TempWeatherWind HumidityBarometerVisibility
2:20 AM
Dec 20
45 °FPassing clouds.10 mph81%30.27 "HgN/A
1:50 AM43 °FPassing clouds.10 mph87%30.27 "HgN/A
1:20 AM43 °FPassing clouds.10 mph81%30.27 "HgN/A
12:50 AM45 °FPassing clouds.13 mph81%30.27 "HgN/A
12:20 AM43 °FClear.13 mph81%30.27 "Hg10 mi
11:50 PM
Dec 19
43 °FClear.13 mph81%30.27 "Hg10 mi
11:20 PM43 °FClear.13 mph81%30.27 "Hg10 mi
10:50 PM43 °FClear.10 mph81%30.27 "Hg10 mi
10:20 PM41 °FClear.12 mph87%30.27 "Hg10 mi
9:50 PM41 °FClear.13 mph87%30.24 "Hg10 mi
9:20 PM41 °FClear.13 mph87%30.24 "Hg10 mi
8:50 PM41 °FClear.10 mph87%30.24 "Hg10 mi
8:20 PM41 °FPassing clouds.10 mph87%30.24 "HgN/A
7:50 PM41 °FPassing clouds.8 mph87%30.24 "HgN/A
7:20 PM41 °FPassing clouds.6 mph81%30.21 "HgN/A
6:50 PM41 °FPassing clouds.9 mph87%30.21 "HgN/A
6:20 PM41 °FPassing clouds.8 mph81%30.21 "HgN/A
5:50 PM41 °FPassing clouds.6 mph81%30.18 "HgN/A
5:20 PM43 °FPassing clouds.6 mph81%30.18 "HgN/A
4:50 PM43 °FPassing clouds.8 mph76%30.18 "HgN/A
4:20 PM45 °FPassing clouds.9 mph76%30.15 "HgN/A
3:50 PM46 °FPassing clouds.12 mph76%30.12 "HgN/A
3:20 PM48 °FPassing clouds.14 mph71%30.12 "HgN/A
2:50 PM48 °FScattered clouds.16 mph66%30.12 "HgN/A
2:20 PM48 °FScattered clouds.17 mph71%30.09 "HgN/A
1:50 PM50 °FScattered clouds.13 mph67%30.09 "HgN/A
1:20 PM48 °FScattered clouds.10 mph71%30.09 "HgN/A
12:50 PM50 °FPassing clouds.15 mph67%30.07 "HgN/A
12:20 PM48 °FPassing clouds.14 mph71%30.07 "HgN/A
11:50 AM48 °FScattered clouds.13 mph66%30.07 "HgN/A
11:20 AM48 °FPassing clouds.12 mph66%30.07 "HgN/A
10:50 AM48 °FPassing clouds.13 mph71%30.07 "HgN/A
10:20 AM48 °FPassing clouds.18 mph71%30.04 "HgN/A
9:50 AM48 °FPassing clouds.15 mph76%30.01 "HgN/A
9:20 AM48 °FPassing clouds.16 mph82%29.98 "HgN/A
8:50 AM48 °FPassing clouds.14 mph87%29.98 "HgN/A
8:20 AM50 °FScattered clouds.13 mph88%29.95 "HgN/A
7:50 AM50 °FPassing clouds.12 mph88%29.92 "HgN/A
7:20 AM52 °FPassing clouds.15 mph88%29.89 "HgN/A
6:50 AM54 °FLight rain. Passing clouds.14 mph100%29.86 "Hg5 mi
6:20 AM54 °FPassing clouds.16 mph100%29.86 "HgN/A
5:50 AM54 °FLight rain. Passing clouds.16 mph100%29.86 "HgN/A
5:20 AM54 °FRain. Low clouds.14 mph100%29.86 "Hg6 mi
4:50 AM54 °FRain. Low clouds.20 mph100%29.83 "HgN/A
3:20 AM54 °FRain. Passing clouds.23 mph94%29.86 "HgN/A
Weather by CustomWeather, © 2014

See weather overviewHow to use our weather pages